OBJECT A, 67683

Orbit data source: Space-Track

You're viewing an Uncataloged Satellite

Recently launched and/or uncataloged satellites may have evolving metadata. Metadata may include but not limited to: Owner, Maufacturer, Bus, Motor, and Mission.

OBJECT A, 67683 is a satellite in LEO that was delivered to and deployed from the ISS. Unknown objects in Earth's orbit typically refer to objects detected orbiting the Earth but have not yet been identified or cataloged. These objects could be anything from previously untracked satellites, spent rocket stages, debris from satellite collisions, or even natural meteoroids temporarily captured by Earth's gravity.

Loading next visibility...
Identifier
67683, 1998-067XZ
Orbit
LEO
Country
Flag of TBDTBD
Related business
None
Manufacturer
Unknown
Mission
Operational spacecraft
Bus & Motor
Unknown
Mass
Unknown
Launch date (UTC)
1998-11-20 (27 years ago)
Launch vehicle
H3-24W
Launch site
Tyuratam Missile And Space Complex (TTMTR)
Object type
Unknown
Shape & HBR
Unknown
Radar Cross Section
RCS unknown

Expand to show TLE details & history
Last TLE update: 11 hours ago

TLE from 11 hours ago
0 OBJECT A
1 67683U 98067XZ  26062.09339650  .00038862  00000-0  65554-3 0  9996
2 67683  51.6311 104.6116 0009500 163.9375 196.1917 15.51220688  3764
Epoch: 2026-03-03T02:14Z
TLE epoch observation values (Epoch: 2026-03-03T02:14:29.457Z)
Latitude
-0.00005°
Longitude
-89.88858°
Altitude
420.098 km
Speed
7.657 km/s
True Right ascension
06h 58m 26s
True Declination
0° 00' 00"
Sunlit
Object was in full shadow at epoch
Visualization orbit readout
Latitude
Unknown
Longitude
Unknown
Altitude
Unknown
Speed
Unknown
Apparent Right ascension
Unknown
Apparent Declination
Unknown
Sunlit
N/A
Visualization observer readout
Local Sidereal Time
17:18:53
Azimuth
Unknown
Elevation
Unknown
Doppler factor
Unknown
Orbital elements
Apogee altitude
420.123 km
Perigee altitude
407.218 km
Semi-major axis
6,791.808 km
Eccentricity
0.00095
Inclination
51.6311°
RAAN
104.6116°
Arg. of periapsis
163.9375°
True anomaly
196.16138°
Mean anomaly
196.1917°
Eccentric anomaly
196.17654°
Mean motion
3.87762 °/min
Orbital period
92.84 mins
BSTAR
0.00065554
Loading maneuver chart data...
Computing Atmospheric mass density...

Documentation

Showing up to 5 results
|